Location: Saluda
(35.2377°N, 82.3468°W)
Time: 15:23:39
(UTC+00:00)

Explorer 11/Cluster Stage 4 - Pass Details

Date: 11 October 2022
Orbit: 466 x 1247 km, 28.8° (Epoch: 08 December)

Event Time Altitude Azimuth Distance (km) Brightness Sun altitude
Rises 19:09:11 0° 267° (W) 4,183 10.7 39.9°
Reaches altitude 10° 19:13:04 10° 252° (WSW) 3,194 10.6 39.4°
Maximum altitude 19:18:27 20° 210° (SSW) 2,459 10.7 38.7°
Drops below altitude 10° 19:23:30 10° 167° (SSE) 2,967 10.1 38.0°
Sets 19:26:58 0° 151° (SSE) 3,796 10.3 37.5°
